Meteo Giornale » Osservazioni meteo Francia » Nizza

ore: 05:00 - Osservazioni Meteo Nizza
Lat. 43° 39' N Lon. 7° 12' E Alt. 4 metri s.l.m.

poco_nuvoloso Europe/Paris

17 °C

Poco Nuvoloso

Temp. 24 Ore

13 °C

21 °C

Nord

5.5 Km/h

Dew point 14 °C

Umidità 82 %

Visibilità  10 Km

Il sole sorge alle ore 07:26

Il sole tramonta alle ore 19:15

Data e Ora Cielo e Fenomeni T °C DP °C Um. % Pres. hPa Vis. km Vento km/h
Oggi h: 05:00 poco_nuvoloso Poco Nuvoloso 17 14 82 1015 10 N 5.5
Oggi h: 04:30 poco_nuvoloso Poco Nuvoloso 18 14 77 1016 10 N/NO 7.4
Oggi h: 04:00 nuvoloso Nuvoloso 18 14 77 1016 10 N/NO 7.4
Oggi h: 03:30 molto_nuvoloso Molto Nuvoloso 18 14 77 1016 10 NO 9.3
Oggi h: 03:00 molto_nuvoloso Molto Nuvoloso 18 14 77 1016 10 NO 7.4
Oggi h: 02:30 molto_nuvoloso Molto Nuvoloso 18 14 77 1016 10 N 5.5
Oggi h: 02:00 molto_nuvoloso Molto Nuvoloso 19 14 72 1016 10 N 5.5
Oggi h: 01:30 molto_nuvoloso Molto Nuvoloso 18 15 82 1017 10 N 5.5
Oggi h: 01:00 molto_nuvoloso Molto Nuvoloso 18 14 77 1017 10 N 5.5
Oggi h: 00:30 molto_nuvoloso Molto Nuvoloso 19 14 72 1017 10 NO 7.4
Ieri h: 23:30 molto_nuvoloso Molto Nuvoloso 20 15 72 1017 10 E 13
Ieri h: 23:00 molto_nuvoloso Molto Nuvoloso 20 14 68 1017 10 E 13
Ieri h: 22:30 molto_nuvoloso Molto Nuvoloso 20 14 68 1017 10 E 13
Ieri h: 22:00 molto_nuvoloso Molto Nuvoloso 20 14 68 1017 10 E/NE 13
Ieri h: 21:30 molto_nuvoloso Molto Nuvoloso 20 14 68 1017 10 E 11.1
Ieri h: 21:00 molto_nuvoloso Molto Nuvoloso 19 14 72 1017 10 N 5.5
Ieri h: 20:30 molto_nuvoloso Molto Nuvoloso 19 14 72 1016 10 E 9.3
Ieri h: 20:00 molto_nuvoloso Molto Nuvoloso 19 14 72 1017 10 E/SE 11.1
Ieri h: 19:30 molto_nuvoloso Molto Nuvoloso 19 14 72 1016 10 E 13
Ieri h: 19:00 molto_nuvoloso Molto Nuvoloso 20 14 68 1016 10 E 13
Ieri h: 18:30 molto_nuvoloso Molto Nuvoloso 20 14 68 1016 10 E/SE 13
Ieri h: 18:00 molto_nuvoloso Molto Nuvoloso 20 15 72 1016 10 E/SE 11.1
Ieri h: 17:00 nuvoloso Nuvoloso 21 14 64 1016 10 SE 9.3
Ieri h: 16:30 nuvoloso Nuvoloso 21 14 64 1016 10 E/SE 9.3
Ieri h: 16:00 nuvoloso Nuvoloso 21 14 64 1016 10 SE 9.3
Ieri h: 15:30 nuvoloso Nuvoloso 21 14 64 1016 10 E/SE 9.3
Ieri h: 15:00 molto_nuvoloso Molto Nuvoloso 21 14 64 1016 10 E/SE 13
Ieri h: 14:30 molto_nuvoloso Molto Nuvoloso 21 14 64 1016 10 E/SE 11.1
Ieri h: 14:00 molto_nuvoloso Molto Nuvoloso 21 14 64 1017 10 E/SE 11.1
Ieri h: 13:30 molto_nuvoloso Molto Nuvoloso 21 14 64 1017 10 E 13
Ieri h: 13:00 molto_nuvoloso Molto Nuvoloso 21 13 60 1017 10 E 13
Ieri h: 12:30 molto_nuvoloso Molto Nuvoloso 21 14 64 1017 10 E 11.1
Ieri h: 12:00 molto_nuvoloso Molto Nuvoloso 21 13 60 1017 10 E 13
Ieri h: 11:30 molto_nuvoloso Molto Nuvoloso 21 13 60 1017 10 E 13
Ieri h: 11:00 molto_nuvoloso Molto Nuvoloso 20 9 49 1017 10 N 7.4
Ieri h: 10:30 molto_nuvoloso Molto Nuvoloso 19 8 48 1017 10 N/NO 11.1
Ieri h: 10:00 molto_nuvoloso Molto Nuvoloso 18 8 51 1016 10 N/NO 13
Ieri h: 09:30 molto_nuvoloso Molto Nuvoloso 16 8 58 1016 10 N/NO 18.5
Ieri h: 09:00 nuvoloso Nuvoloso 15 8 62 1016 10 N/NO 20.3
Ieri h: 08:30 nuvoloso Nuvoloso 14 8 67 1016 10 N/NO 22.2
Ieri h: 08:00 poco_nuvoloso Poco Nuvoloso 14 8 67 1015 10 N/NO 20.3
Ieri h: 07:30 poco_nuvoloso Poco Nuvoloso 13 7 66 1015 10 N/NO 16.7
Ieri h: 07:00 poco_nuvoloso Poco Nuvoloso 13 8 71 1014 10 N/NO 14.8